Home > Weather > Basse-Terre > Past weeks

Flag for Guadeloupe Past Weather in Basse-Terre, Guadeloupe — Yesterday and Last 2 Weeks

Now
75 °F

Passing clouds.


Feels Like: 75 °F
Forecast: 81 / 85 °F
Wind: 3 mph from Southeast

Location: Le Raizet - Guadeloupe

Current Time: Jun 30, 2016 at 4:50:18 AM

Latest Report: Jun 30, 2016 at 4:30 AM


Visibility: N/A

Pressure: 30.04 "Hg

Humidity: 83%

Dew Point: 70 °F

Location of Basse-TerreLocation

Past Weather in Basse-Terre — Graph

°F

Basse-Terre Temperature Yesterday

Maximum temperature yesterday: 88 °F (at 12:30 PM)
Minimum temperature yesterday: 79 °F (at 1:00 AM)
Average temperature yesterday: 82 °F

High & Low Weather Summary for the Past Weeks

 TemperatureHumidityPressure
High90 °F (Jun 15, 12:00 PM)100% (Jun 19, 6:00 PM)30.15 "Hg (Jun 19, 6:00 PM)
Low73 °F (Jun 23, 5:30 AM)46% (Jun 15, 12:30 PM)29.95 "Hg (Jun 25, 3:00 PM)
Average81 °F75%30.04 "Hg
* Reported Jun 15 3:00 AM — Jun 30 3:30 AM, Basse-Terre, Weather by CustomWeather, © 2016

Note: Actual official high and low records may vary slightly from our data, if they occured in-between our weather recording intervals... More about our weather records

Advertising

Basse-Terre Weather History for the Previous 24 Hours

Scroll right to see more
 ConditionsComfort  
Time TempWeatherWind HumidityBarometerVisibility
3:30 AM
Thu, Jun 30
75 °FPartly cloudy.No wind83%30.04 "HgN/A
3:00 AM75 °FPassing clouds.No wind83%30.04 "HgN/A
2:30 AM75 °FClear.No wind83%30.01 "HgN/A
2:00 AM77 °FClear.2 mph79%30.04 "HgN/A
1:30 AM77 °FClear.3 mph79%30.04 "HgN/A
1:00 AM77 °FClear.5 mph79%30.04 "HgN/A
12:30 AM79 °FPassing clouds.5 mph79%30.07 "HgN/A
12:00 AM77 °FPassing clouds.3 mph79%30.07 "HgN/A
11:30 PM
Wed, Jun 29
79 °FClear.5 mph79%30.07 "HgN/A
11:00 PM79 °FPassing clouds.6 mph79%30.07 "HgN/A
10:30 PM79 °FPartly cloudy.6 mph79%30.07 "HgN/A
10:00 PM79 °FPassing clouds.5 mph79%30.07 "HgN/A
9:30 PM79 °FClear.5 mph79%30.07 "HgN/A
9:00 PM79 °FClear.5 mph79%30.07 "HgN/A
8:30 PM79 °FClear.5 mph79%30.04 "HgN/A
8:00 PM81 °FClear.7 mph74%30.04 "HgN/A
7:30 PM81 °FClear.6 mph74%30.04 "HgN/A
7:00 PM82 °FPassing clouds.8 mph70%30.04 "HgN/A
6:30 PM82 °FPartly sunny.8 mph70%30.01 "HgN/A
6:00 PM82 °FPassing clouds.12 mph66%30.01 "HgN/A
5:30 PM84 °FPassing clouds.13 mph62%30.01 "HgN/A
5:00 PM84 °FBroken clouds.12 mph66%30.01 "HgN/A
4:30 PM86 °FPartly sunny.13 mph62%30.01 "HgN/A
4:00 PM86 °FScattered clouds.15 mph59%30.01 "HgN/A
3:30 PM86 °FBroken clouds.14 mph62%30.01 "HgN/A
3:00 PM86 °FBroken clouds.14 mph62%30.01 "HgN/A
2:30 PM86 °FBroken clouds.15 mph62%30.01 "HgN/A
2:00 PM86 °FBroken clouds.17 mph59%30.01 "HgN/A
1:30 PM86 °FPassing clouds.17 mph59%30.04 "HgN/A
1:00 PM88 °FPassing clouds.16 mph55%30.04 "HgN/A
12:30 PM88 °FPassing clouds.18 mph52%30.04 "HgN/A
12:00 PM86 °FPassing clouds.16 mph59%30.04 "HgN/A
11:30 AM86 °FClear.17 mph55%30.07 "HgN/A
11:00 AM86 °FScattered clouds.20 mph62%30.07 "HgN/A
10:30 AM86 °FPassing clouds.20 mph59%30.07 "HgN/A
10:00 AM86 °FScattered clouds.18 mph62%30.07 "HgN/A
9:30 AM84 °FPassing clouds.18 mph58%30.07 "HgN/A
9:00 AM84 °FScattered clouds.18 mph62%30.07 "HgN/A
8:30 AM82 °FScattered clouds.14 mph74%30.04 "HgN/A
8:00 AM82 °FPassing clouds.10 mph70%30.04 "HgN/A
7:30 AM82 °FPassing clouds.8 mph74%30.04 "HgN/A
7:00 AM81 °FPassing clouds.9 mph79%30.04 "HgN/A
6:30 AM79 °FBroken clouds.7 mph84%30.04 "HgN/A
6:00 AM79 °FClear.9 mph79%30.04 "HgN/A
5:30 AM79 °FPassing clouds.2 mph84%30.04 "HgN/A
5:00 AM79 °FPassing clouds.2 mph84%30.04 "HgN/A
4:30 AM79 °FPassing clouds.3 mph84%30.01 "HgN/A
4:00 AM79 °FPassing clouds.2 mph79%30.01 "HgN/A
Weather by CustomWeather, © 2016

See weather overviewHow to use our weather pages